Geely Xingzuo 04 zu 01 xing

operational
NORAD ID: 65119 Int'l Des: 2025-170 Owner: GEESP Country: CN Constellation: geesatcom
LEOCIRCULAR

Über Geely Xingzuo 04 zu 01 xing

Beschreibung wird geladen...

Live-Position

3D-Globus wird geladen...

Nächste Überflüge

Höhenverlauf

Altitude vs Time

uPlot chart will show altitude changes over time

Zweizeiliger Elementsatz

1 65119U 25170A 26063.10862778 .00003538 00000-0 44870-3 0 9998
2 65119 49.9877 301.6863 0010979 9.0685 351.0449 14.83851553 30832
Epoch: 4. März 2026 • Age: 21 hours

Aktueller Status

Höhe 623.9 km
Geschwindigkeit 7.55 km/s
Subsatellitenpunkt 10.18°N, 10.15°W
Startdatum 8. Aug. 2025
Alter 0.5 years
Typ other

Technische Details

Klassifizierung Payload
Masse 130.00 kg
Trockenmasse 130.00 kg
Gesamtmasse 130.00 kg
Länge 1.00 m
Durchmesser 0.50 m
Spannweite 2.00 m
Form Box + 2 pan
Hersteller GWCG
Bus-Typ GPS100
Phasenstatus In Orbit
Besitzer/Staat GEESP/CN

Große Konstellationen

Loading constellations...